| time (UTC) | temp F | wind direction | speed MPH | gust MPH | rain 1hr in | rain 24hr in | rain mn in | humidity % | barometer mb |
| 20260508151105 | 63 | 201 | 3.0 | 6.0 | 0.00 | 0.00 | 0.00 | 37 | 1013.2 |
| 20260508150606 | 63 | 154 | 2.0 | 5.0 | 0.00 | 0.00 | 0.00 | 38 | 1013.2 |
| 20260508150105 | 63 | 180 | 2.0 | 8.0 | 0.00 | 0.00 | 0.00 | 38 | 1013.2 |
| 20260508145604 | 63 | 178 | 3.0 | 9.0 | 0.00 | 0.00 | 0.00 | 35 | 1013.3 |
| 20260508144105 | 62 | 92 | 2.0 | 6.0 | 0.00 | 0.00 | 0.00 | 34 | 1013.4 |
| 20260508143605 | 62 | 336 | 2.0 | 7.0 | 0.00 | 0.00 | 0.00 | 36 | 1013.4 |
| 20260508143106 | 62 | 206 | 1.0 | 5.0 | 0.00 | 0.00 | 0.00 | 39 | 1013.5 |
| 20260508142105 | 61 | 350 | 2.0 | 5.0 | 0.00 | 0.00 | 0.00 | 38 | 1013.5 |
| 20260508141605 | 61 | 165 | 2.0 | 8.0 | 0.00 | 0.00 | 0.00 | 37 | 1013.6 |
| 20260508141105 | 61 | 157 | 3.0 | 8.0 | 0.00 | 0.00 | 0.00 | 39 | 1013.6 |
| 20260508140605 | 61 | 146 | 3.0 | 7.0 | 0.00 | 0.00 | 0.00 | 40 | 1013.6 |
| 20260508135104 | 61 | 178 | 1.0 | 3.0 | 0.00 | 0.00 | 0.00 | 42 | 1013.6 |
| 20260508134105 | 60 | 127 | 1.0 | 3.0 | 0.00 | 0.00 | 0.00 | 44 | 1013.5 |
| 20260508133605 | 60 | 223 | 1.0 | 3.0 | 0.00 | 0.00 | 0.00 | 45 | 1013.7 |
| 20260508133105 | 59 | 171 | 1.0 | 3.0 | 0.00 | 0.00 | 0.00 | 44 | 1013.7 |
| 20260508132605 | 58 | 124 | 1.0 | 3.0 | 0.00 | 0.00 | 0.00 | 43 | 1013.8 |
| 20260508132105 | 58 | 323 | 2.0 | 3.0 | 0.00 | 0.00 | 0.00 | 45 | 1013.8 |
| 20260508131605 | 58 | 152 | 1.0 | 3.0 | 0.00 | 0.00 | 0.00 | 44 | 1013.8 |
| 20260508131105 | 58 | 208 | 1.0 | 3.0 | 0.00 | 0.00 | 0.00 | 46 | 1013.7 |
| 20260508130604 | 57 | 342 | 1.0 | 3.0 | 0.00 | 0.00 | 0.00 | 46 | 1013.7 |
| 20260508125605 | 56 | 159 | 1.0 | 3.0 | 0.00 | 0.00 | 0.00 | 50 | 1013.8 |
| 20260508124105 | 54 | 329 | 2.0 | 3.0 | 0.00 | 0.00 | 0.00 | 53 | 1013.8 |
| 20260508123604 | 53 | 315 | 0.0 | 2.0 | 0.00 | 0.00 | 0.00 | 55 | 1013.8 |
| 20260508123105 | 53 | 321 | 1.0 | 3.0 | 0.00 | 0.00 | 0.00 | 57 | 1013.8 |
| 20260508122605 | 53 | 328 | 1.0 | 2.0 | 0.00 | 0.00 | 0.00 | 59 | 1013.8 |
| 20260508122104 | 52 | 115 | 0.0 | 1.0 | 0.00 | 0.00 | 0.00 | 62 | 1013.6 |
| 20260508121105 | 52 | 198 | 0.0 | 2.0 | 0.00 | 0.00 | 0.00 | 64 | 1013.5 |
| 20260508120604 | 51 | 308 | 0.0 | 1.0 | 0.00 | 0.00 | 0.00 | 65 | 1013.5 |
| 20260508120105 | 51 | 286 | 0.0 | 1.0 | 0.00 | 0.00 | 0.00 | 66 | 1013.5 |
| 20260508115605 | 51 | 304 | 0.0 | 1.0 | 0.00 | 0.00 | 0.00 | 67 | 1013.6 |
| 20260508115106 | 50 | 331 | 0.0 | 2.0 | 0.00 | 0.00 | 0.00 | 66 | 1013.6 |
| 20260508114605 | 50 | 234 | 0.0 | 1.0 | 0.00 | 0.00 | 0.00 | 68 | 1013.5 |
| 20260508114105 | 49 | 233 | 0.0 | 1.0 | 0.00 | 0.00 | 0.00 | 69 | 1013.5 |
| 20260508113105 | 48 | 316 | 0.0 | 2.0 | 0.00 | 0.00 | 0.00 | 70 | 1013.6 |
| 20260508112605 | 47 | 311 | 0.0 | 2.0 | 0.00 | 0.00 | 0.00 | 72 | 1013.6 |
| 20260508112105 | 47 | 287 | 0.0 | 1.0 | 0.00 | 0.00 | 0.00 | 73 | 1013.5 |
| 20260508111605 | 46 | 286 | 0.0 | 0.0 | 0.00 | 0.00 | 0.00 | 74 | 1013.4 |
| 20260508111105 | 45 | 286 | 0.0 | 1.0 | 0.00 | 0.00 | 0.00 | 76 | 1013.3 |
| 20260508110604 | 44 | 285 | 0.0 | 0.0 | 0.00 | 0.00 | 0.00 | 76 | 1013.2 |
| 20260508110104 | 44 | 285 | 0.0 | 0.0 | 0.00 | 0.00 | 0.00 | 75 | 1013.1 |
| 20260508105604 | 44 | 285 | 0.0 | 0.0 | 0.00 | 0.00 | 0.00 | 75 | 1012.9 |
| 20260508105105 | 44 | 285 | 0.0 | 0.0 | 0.00 | 0.00 | 0.00 | 76 | 1013.0 |
| 20260508104605 | 43 | 285 | 0.0 | 0.0 | 0.00 | 0.00 | 0.00 | 75 | 1013.1 |
| 20260508104105 | 43 | 285 | 0.0 | 0.0 | 0.00 | 0.00 | 0.00 | 75 | 1013.0 |
| 20260508103605 | 43 | 285 | 0.0 | 0.0 | 0.00 | 0.00 | 0.00 | 75 | 1012.9 |
| 20260508103105 | 43 | 285 | 0.0 | 0.0 | 0.00 | 0.00 | 0.00 | 74 | 1013.0 |
| 20260508102105 | 43 | 285 | 0.0 | 0.0 | 0.00 | 0.00 | 0.00 | 72 | 1012.9 |
| 20260508100605 | 44 | 285 | 0.0 | 0.0 | 0.00 | 0.00 | 0.00 | 72 | 1012.6 |
| 20260508100105 | 44 | 285 | 0.0 | 0.0 | 0.00 | 0.00 | 0.00 | 71 | 1012.5 |
| 20260508095605 | 44 | 285 | 0.0 | 0.0 | 0.00 | 0.00 | 0.00 | 69 | 1012.6 |
| 20260508095105 | 45 | 285 | 0.0 | 0.0 | 0.00 | 0.00 | 0.00 | 68 | 1012.5 |
| 20260508094604 | 45 | 285 | 0.0 | 0.0 | 0.00 | 0.00 | 0.00 | 67 | 1012.5 |
| 20260508093605 | 47 | 285 | 0.0 | 0.0 | 0.00 | 0.00 | 0.00 | 66 | 1012.3 |
| 20260508092104 | 48 | 286 | 0.0 | 1.0 | 0.00 | 0.00 | 0.00 | 66 | 1012.3 |
| 20260508091604 | 48 | 45 | 0.0 | 1.0 | 0.00 | 0.00 | 0.00 | 66 | 1012.3 |
| 20260508091104 | 48 | 298 | 0.0 | 2.0 | 0.00 | 0.00 | 0.00 | 65 | 1012.2 |
| 20260508090605 | 49 | 344 | 0.0 | 1.0 | 0.00 | 0.00 | 0.00 | 65 | 1012.2 |
| 20260508090105 | 49 | 321 | 0.0 | 1.0 | 0.00 | 0.00 | 0.00 | 65 | 1012.1 |
| 20260508085605 | 49 | 206 | 0.0 | 1.0 | 0.00 | 0.00 | 0.00 | 64 | 1012.1 |
| 20260508085105 | 49 | 285 | 0.0 | 2.0 | 0.00 | 0.00 | 0.00 | 64 | 1012.1 |
| 20260508084604 | 50 | 334 | 1.0 | 3.0 | 0.00 | 0.00 | 0.00 | 64 | 1012.0 |
| 20260508084104 | 50 | 122 | 0.0 | 3.0 | 0.00 | 0.00 | 0.00 | 63 | 1011.9 |
| 20260508083604 | 50 | 149 | 0.0 | 1.0 | 0.00 | 0.00 | 0.00 | 63 | 1011.9 |
| 20260508083105 | 50 | 11 | 1.0 | 3.0 | 0.00 | 0.00 | 0.00 | 62 | 1011.8 |
| 20260508082604 | 51 | 306 | 1.0 | 3.0 | 0.00 | 0.00 | 0.00 | 62 | 1011.6 |
| 20260508082104 | 51 | 11 | 1.0 | 8.0 | 0.00 | 0.00 | 0.00 | 62 | 1011.5 |
| 20260508081605 | 51 | 301 | 0.0 | 1.0 | 0.00 | 0.00 | 0.00 | 61 | 1011.4 |
| 20260508081105 | 51 | 310 | 0.0 | 1.0 | 0.00 | 0.00 | 0.00 | 60 | 1011.3 |
| 20260508080605 | 52 | 64 | 1.0 | 3.0 | 0.00 | 0.00 | 0.00 | 60 | 1011.2 |
| 20260508080105 | 52 | 48 | 1.0 | 3.0 | 0.00 | 0.00 | 0.00 | 60 | 1011.0 |
| 20260508075605 | 52 | 194 | 0.0 | 2.0 | 0.00 | 0.00 | 0.00 | 59 | 1010.9 |
| 20260508075104 | 53 | 320 | 1.0 | 3.0 | 0.00 | 0.00 | 0.00 | 58 | 1010.8 |
| 20260508074105 | 53 | 291 | 1.0 | 9.0 | 0.00 | 0.00 | 0.00 | 58 | 1010.7 |
| 20260508073604 | 53 | 292 | 2.0 | 8.0 | 0.00 | 0.00 | 0.00 | 58 | 1010.6 |
| 20260508073105 | 53 | 311 | 2.0 | 7.0 | 0.00 | 0.00 | 0.00 | 59 | 1010.5 |
| 20260508072604 | 53 | 120 | 0.0 | 3.0 | 0.00 | 0.00 | 0.00 | 59 | 1010.2 |
| 20260508070605 | 53 | 10 | 1.0 | 3.0 | 0.00 | 0.00 | 0.00 | 64 | 1009.9 |
| 20260508070105 | 52 | 315 | 2.0 | 6.0 | 0.00 | 0.00 | 0.00 | 68 | 1009.9 |
| 20260508065605 | 52 | 316 | 1.0 | 3.0 | 0.00 | 0.00 | 0.00 | 70 | 1009.7 |
| 20260508065104 | 52 | 269 | 0.0 | 3.0 | 0.00 | 0.00 | 0.00 | 71 | 1009.7 |
| 20260508064604 | 52 | 285 | 0.0 | 2.0 | 0.00 | 0.00 | 0.00 | 71 | 1009.6 |
| 20260508064104 | 52 | 267 | 0.0 | 1.0 | 0.00 | 0.00 | 0.00 | 71 | 1009.4 |
| 20260508063104 | 53 | 162 | 0.0 | 1.0 | 0.00 | 0.00 | 0.00 | 70 | 1009.3 |
| 20260508062604 | 53 | 197 | 0.0 | 1.0 | 0.00 | 0.01 | 0.00 | 70 | 1009.2 |
| 20260508062104 | 53 | 184 | 0.0 | 2.0 | 0.00 | 0.02 | 0.00 | 70 | 1009.3 |
| 20260508061104 | 53 | 141 | 0.0 | 1.0 | 0.00 | 0.03 | 0.00 | 69 | 1009.2 |
| 20260508060605 | 54 | 144 | 0.0 | 3.0 | 0.00 | 0.04 | 0.00 | 69 | 1009.2 |
| 20260508060104 | 53 | 163 | 2.0 | 5.0 | 0.00 | 0.04 | 0.00 | 69 | 1009.1 |
| 20260508055604 | 53 | 164 | 0.0 | 3.0 | 0.00 | 0.05 | 0.00 | 69 | 1009.1 |
| 20260508055104 | 53 | 186 | 0.0 | 3.0 | 0.00 | 0.12 | 0.00 | 70 | 1009.1 |
| 20260508054605 | 53 | 168 | 1.0 | 5.0 | 0.00 | 0.13 | 0.00 | 70 | 1009.1 |
| 20260508054104 | 53 | 257 | 1.0 | 2.0 | 0.00 | 0.13 | 0.00 | 70 | 1009.0 |
| 20260508053604 | 53 | 160 | 0.0 | 1.0 | 0.00 | 0.13 | 0.00 | 70 | 1009.1 |
| 20260508053104 | 53 | 164 | 0.0 | 1.0 | 0.00 | 0.13 | 0.00 | 70 | 1009.1 |
| 20260508052605 | 53 | 167 | 0.0 | 1.0 | 0.00 | 0.13 | 0.00 | 70 | 1009.1 |
| 20260508052105 | 53 | 137 | 0.0 | 3.0 | 0.00 | 0.13 | 0.00 | 70 | 1008.9 |
| 20260508051105 | 53 | 152 | 0.0 | 2.0 | 0.00 | 0.13 | 0.00 | 69 | 1009.0 |
| 20260508050604 | 53 | 184 | 0.0 | 2.0 | 0.00 | 0.13 | 0.00 | 69 | 1009.0 |
| 20260508045605 | 53 | 184 | 0.0 | 3.0 | 0.00 | 0.13 | 0.00 | 69 | 1009.0 |
| 20260508045105 | 53 | 253 | 1.0 | 3.0 | 0.00 | 0.13 | 0.00 | 69 | 1009.0 |
| 20260508044104 | 53 | 179 | 2.0 | 5.0 | 0.00 | 0.13 | 0.00 | 69 | 1009.0 |
| 20260508043605 | 53 | 145 | 1.0 | 3.0 | 0.00 | 0.13 | 0.00 | 69 | 1008.9 |
| 20260508043105 | 53 | 166 | 1.0 | 3.0 | 0.00 | 0.13 | 0.00 | 69 | 1008.9 |
| 20260508042604 | 53 | 179 | 1.0 | 2.0 | 0.00 | 0.13 | 0.00 | 69 | 1008.9 |
| 20260508042105 | 53 | 186 | 1.0 | 3.0 | 0.00 | 0.13 | 0.00 | 69 | 1008.9 |
| 20260508041605 | 53 | 157 | 0.0 | 1.0 | 0.00 | 0.13 | 0.00 | 69 | 1008.8 |
| 20260508040605 | 53 | 179 | 2.0 | 6.0 | 0.00 | 0.13 | 0.00 | 69 | 1008.9 |
| 20260508035604 | 53 | 76 | 0.0 | 3.0 | 0.00 | 0.13 | 0.13 | 69 | 1008.8 |
| 20260508035105 | 53 | 130 | 0.0 | 2.0 | 0.00 | 0.13 | 0.13 | 69 | 1008.8 |
| 20260508034605 | 53 | 184 | 0.0 | 2.0 | 0.00 | 0.13 | 0.13 | 69 | 1008.8 |
| 20260508033605 | 53 | 194 | 1.0 | 5.0 | 0.00 | 0.13 | 0.13 | 69 | 1008.7 |
| 20260508033105 | 53 | 183 | 1.0 | 3.0 | 0.00 | 0.13 | 0.13 | 69 | 1008.7 |
| 20260508032105 | 54 | 179 | 1.0 | 3.0 | 0.00 | 0.13 | 0.13 | 69 | 1008.8 |
| 20260508031605 | 54 | 119 | 0.0 | 3.0 | 0.00 | 0.13 | 0.13 | 70 | 1008.7 |
| 20260508031105 | 53 | 104 | 1.0 | 3.0 | 0.00 | 0.13 | 0.13 | 70 | 1008.7 |
| 20260508030605 | 53 | 129 | 1.0 | 3.0 | 0.00 | 0.13 | 0.13 | 70 | 1008.8 |
| 20260508030105 | 53 | 117 | 2.0 | 3.0 | 0.00 | 0.13 | 0.13 | 71 | 1008.7 |
| 20260508025605 | 53 | 113 | 0.0 | 3.0 | 0.00 | 0.13 | 0.13 | 71 | 1008.7 |
| 20260508025105 | 53 | 169 | 1.0 | 5.0 | 0.00 | 0.13 | 0.13 | 71 | 1008.7 |
| 20260508024605 | 53 | 116 | 1.0 | 5.0 | 0.00 | 0.13 | 0.13 | 71 | 1008.7 |
| 20260508024105 | 53 | 154 | 1.0 | 2.0 | 0.00 | 0.13 | 0.13 | 70 | 1008.6 |
| 20260508023605 | 53 | 132 | 1.0 | 3.0 | 0.00 | 0.13 | 0.13 | 69 | 1008.6 |
| 20260508022106 | 54 | 229 | 0.0 | 2.0 | 0.00 | 0.13 | 0.13 | 67 | 1008.7 |
| 20260508021605 | 54 | 122 | 1.0 | 3.0 | 0.00 | 0.13 | 0.13 | 66 | 1008.6 |
| 20260508021104 | 54 | 143 | 1.0 | 3.0 | 0.00 | 0.13 | 0.13 | 66 | 1008.5 |
| 20260508020605 | 54 | 120 | 1.0 | 3.0 | 0.00 | 0.13 | 0.13 | 65 | 1008.5 |
| 20260508020105 | 54 | 121 | 0.0 | 2.0 | 0.00 | 0.13 | 0.13 | 64 | 1008.5 |
| 20260508014605 | 55 | 126 | 1.0 | 2.0 | 0.00 | 0.13 | 0.13 | 64 | 1008.4 |
| 20260508013604 | 55 | 125 | 1.0 | 3.0 | 0.00 | 0.13 | 0.13 | 63 | 1008.3 |
| 20260508013104 | 55 | 110 | 0.0 | 2.0 | 0.00 | 0.13 | 0.13 | 61 | 1008.2 |
| 20260508012605 | 55 | 138 | 0.0 | 2.0 | 0.00 | 0.13 | 0.13 | 59 | 1008.2 |
| 20260508012104 | 55 | 107 | 0.0 | 2.0 | 0.00 | 0.13 | 0.13 | 57 | 1008.1 |
| 20260508011605 | 55 | 113 | 1.0 | 2.0 | 0.00 | 0.13 | 0.13 | 54 | 1008.1 |
| 20260508010605 | 55 | 285 | 0.0 | 0.0 | 0.00 | 0.13 | 0.13 | 50 | 1008.0 |
| 20260508005604 | 55 | 285 | 0.0 | 0.0 | 0.00 | 0.13 | 0.13 | 49 | 1008.0 |
| 20260508005104 | 56 | 285 | 0.0 | 0.0 | 0.00 | 0.13 | 0.13 | 47 | 1007.9 |
| 20260508004604 | 56 | 285 | 0.0 | 0.0 | 0.00 | 0.13 | 0.13 | 48 | 1007.7 |
| 20260508004105 | 56 | 285 | 0.0 | 0.0 | 0.00 | 0.13 | 0.13 | 47 | 1007.7 |
| 20260508002605 | 58 | 285 | 0.0 | 0.0 | 0.00 | 0.13 | 0.13 | 43 | 1007.7 |
| 20260508001604 | 59 | 285 | 0.0 | 0.0 | 0.00 | 0.13 | 0.13 | 42 | 1007.6 |
| 20260508001104 | 59 | 285 | 0.0 | 0.0 | 0.00 | 0.13 | 0.13 | 41 | 1007.5 |
| 20260508000106 | 60 | 27 | 0.0 | 1.0 | 0.00 | 0.13 | 0.13 | 40 | 1007.4 |
| 20260507235606 | 60 | 40 | 0.0 | 1.0 | 0.00 | 0.13 | 0.13 | 40 | 1007.4 |
| 20260507235105 | 61 | 46 | 0.0 | 2.0 | 0.00 | 0.13 | 0.13 | 38 | 1007.4 |
| 20260507234604 | 61 | 291 | 0.0 | 1.0 | 0.00 | 0.13 | 0.13 | 38 | 1007.3 |
| 20260507233605 | 62 | 289 | 0.0 | 1.0 | 0.00 | 0.13 | 0.13 | 37 | 1007.2 |
| 20260507232604 | 63 | 274 | 0.0 | 1.0 | 0.00 | 0.13 | 0.13 | 36 | 1007.2 |
| 20260507232104 | 63 | 274 | 0.0 | 1.0 | 0.00 | 0.13 | 0.13 | 36 | 1007.2 |
| 20260507231604 | 63 | 293 | 0.0 | 3.0 | 0.00 | 0.13 | 0.13 | 35 | 1007.1 |
| 20260507231105 | 63 | 287 | 0.0 | 2.0 | 0.00 | 0.13 | 0.13 | 35 | 1007.0 |
| 20260507230604 | 64 | 6 | 0.0 | 1.0 | 0.00 | 0.13 | 0.13 | 35 | 1007.0 |
| 20260507230105 | 64 | 305 | 0.0 | 1.0 | 0.00 | 0.13 | 0.13 | 35 | 1007.0 |
| 20260507225605 | 64 | 257 | 1.0 | 3.0 | 0.00 | 0.13 | 0.13 | 34 | 1006.9 |
| 20260507225105 | 64 | 140 | 0.0 | 2.0 | 0.00 | 0.13 | 0.13 | 34 | 1006.9 |
| 20260507224605 | 64 | 310 | 1.0 | 3.0 | 0.00 | 0.13 | 0.13 | 34 | 1006.9 |
| 20260507224104 | 65 | 286 | 1.0 | 3.0 | 0.00 | 0.13 | 0.13 | 33 | 1006.8 |
| 20260507223605 | 65 | 317 | 1.0 | 2.0 | 0.00 | 0.13 | 0.13 | 32 | 1006.8 |
| 20260507223104 | 65 | 321 | 1.0 | 3.0 | 0.00 | 0.13 | 0.13 | 33 | 1007.0 |
| 20260507222604 | 65 | 295 | 1.0 | 3.0 | 0.00 | 0.13 | 0.13 | 33 | 1007.0 |
| 20260507222104 | 65 | 21 | 0.0 | 2.0 | 0.00 | 0.13 | 0.13 | 33 | 1007.1 |
| 20260507221604 | 66 | 308 | 1.0 | 3.0 | 0.00 | 0.13 | 0.13 | 33 | 1007.0 |
| 20260507221105 | 66 | 329 | 2.0 | 5.0 | 0.00 | 0.13 | 0.13 | 32 | 1007.1 |
| 20260507220104 | 67 | 16 | 1.0 | 3.0 | 0.00 | 0.13 | 0.13 | 32 | 1007.2 |
| 20260507215604 | 67 | 298 | 2.0 | 5.0 | 0.00 | 0.13 | 0.13 | 31 | 1007.2 |
| 20260507215104 | 67 | 292 | 2.0 | 3.0 | 0.00 | 0.13 | 0.13 | 32 | 1007.2 |
| 20260507214604 | 68 | 353 | 1.0 | 2.0 | 0.00 | 0.13 | 0.13 | 31 | 1007.2 |
| 20260507214105 | 67 | 346 | 1.0 | 3.0 | 0.00 | 0.13 | 0.13 | 32 | 1007.3 |
| 20260507213606 | 67 | 312 | 2.0 | 5.0 | 0.00 | 0.13 | 0.13 | 31 | 1007.2 |
| 20260507212605 | 67 | 185 | 1.0 | 3.0 | 0.00 | 0.13 | 0.13 | 32 | 1007.2 |
| 20260507212105 | 68 | 111 | 2.0 | 5.0 | 0.00 | 0.13 | 0.13 | 32 | 1007.2 |
| 20260507211604 | 67 | 303 | 1.0 | 2.0 | 0.00 | 0.13 | 0.13 | 31 | 1007.2 |
| 20260507211105 | 67 | 58 | 2.0 | 6.0 | 0.00 | 0.13 | 0.13 | 33 | 1007.1 |
| 20260507210105 | 67 | 295 | 2.0 | 6.0 | 0.00 | 0.13 | 0.13 | 33 | 1007.1 |
| 20260507205605 | 67 | 320 | 2.0 | 6.0 | 0.00 | 0.13 | 0.13 | 33 | 1007.0 |
| 20260507205104 | 67 | 335 | 2.0 | 8.0 | 0.00 | 0.13 | 0.13 | 31 | 1007.1 |
| 20260507204604 | 67 | 187 | 1.0 | 3.0 | 0.00 | 0.13 | 0.13 | 33 | 1006.9 |
| 20260507204105 | 67 | 9 | 2.0 | 6.0 | 0.00 | 0.13 | 0.13 | 31 | 1007.0 |
| 20260507203105 | 66 | 12 | 1.0 | 3.0 | 0.00 | 0.13 | 0.13 | 33 | 1006.9 |
| 20260507202604 | 66 | 224 | 1.0 | 7.0 | 0.00 | 0.13 | 0.13 | 33 | 1007.0 |
| 20260507202104 | 66 | 325 | 2.0 | 3.0 | 0.00 | 0.13 | 0.13 | 32 | 1007.0 |
| 20260507201605 | 67 | 301 | 2.0 | 5.0 | 0.00 | 0.13 | 0.13 | 33 | 1007.0 |
| 20260507200604 | 66 | 290 | 2.0 | 7.0 | 0.00 | 0.13 | 0.13 | 32 | 1007.2 |
| 20260507200105 | 66 | 355 | 1.0 | 3.0 | 0.00 | 0.13 | 0.13 | 34 | 1007.3 |
| 20260507195605 | 66 | 119 | 1.0 | 2.0 | 0.00 | 0.13 | 0.13 | 34 | 1007.3 |
| 20260507195105 | 66 | 264 | 2.0 | 5.0 | 0.00 | 0.13 | 0.13 | 34 | 1007.4 |
| 20260507194104 | 66 | 200 | 1.0 | 3.0 | 0.00 | 0.13 | 0.13 | 34 | 1007.5 |
| 20260507193604 | 66 | 145 | 1.0 | 3.0 | 0.00 | 0.13 | 0.13 | 34 | 1007.6 |
| 20260507193104 | 66 | 295 | 2.0 | 5.0 | 0.00 | 0.13 | 0.13 | 34 | 1007.5 |
| 20260507192604 | 66 | 274 | 1.0 | 5.0 | 0.00 | 0.13 | 0.13 | 34 | 1007.6 |
| 20260507192105 | 66 | 336 | 2.0 | 5.0 | 0.00 | 0.13 | 0.13 | 32 | 1007.6 |
| 20260507191604 | 66 | 314 | 2.0 | 5.0 | 0.00 | 0.13 | 0.13 | 35 | 1007.8 |
| 20260507191105 | 67 | 9 | 2.0 | 5.0 | 0.00 | 0.13 | 0.13 | 34 | 1007.9 |
| 20260507190604 | 67 | 1 | 0.0 | 3.0 | 0.00 | 0.13 | 0.13 | 33 | 1008.0 |
| 20260507185605 | 66 | 7 | 1.0 | 3.0 | 0.00 | 0.13 | 0.13 | 33 | 1008.2 |
| 20260507185104 | 66 | 352 | 3.0 | 6.0 | 0.00 | 0.13 | 0.13 | 34 | 1008.2 |
| 20260507184104 | 66 | 141 | 0.0 | 3.0 | 0.00 | 0.13 | 0.13 | 35 | 1008.2 |
| 20260507183605 | 66 | 269 | 2.0 | 6.0 | 0.00 | 0.13 | 0.13 | 34 | 1008.2 |
| 20260507183105 | 67 | 343 | 2.0 | 5.0 | 0.00 | 0.13 | 0.13 | 35 | 1008.3 |
| 20260507182604 | 67 | 7 | 2.0 | 3.0 | 0.00 | 0.13 | 0.13 | 37 | 1008.2 |
| 20260507182104 | 66 | 304 | 2.0 | 3.0 | 0.00 | 0.13 | 0.13 | 35 | 1008.2 |
| 20260507181605 | 65 | 60 | 1.0 | 3.0 | 0.00 | 0.13 | 0.13 | 35 | 1008.2 |
| 20260507181105 | 65 | 274 | 1.0 | 7.0 | 0.00 | 0.13 | 0.13 | 37 | 1008.3 |
| 20260507180104 | 65 | 1 | 2.0 | 6.0 | 0.00 | 0.13 | 0.13 | 36 | 1008.6 |
| 20260507175604 | 64 | 294 | 2.0 | 5.0 | 0.00 | 0.13 | 0.13 | 35 | 1008.6 |
| 20260507174604 | 64 | 316 | 1.0 | 3.0 | 0.00 | 0.13 | 0.13 | 39 | 1008.7 |
| 20260507174105 | 64 | 343 | 3.0 | 8.0 | 0.00 | 0.13 | 0.13 | 39 | 1008.8 |
| 20260507173605 | 63 | 334 | 1.0 | 5.0 | 0.00 | 0.13 | 0.13 | 37 | 1008.8 |
| 20260507173105 | 64 | 336 | 3.0 | 7.0 | 0.00 | 0.13 | 0.13 | 40 | 1008.9 |
| 20260507172604 | 64 | 255 | 2.0 | 7.0 | 0.00 | 0.13 | 0.13 | 41 | 1009.0 |
| 20260507171605 | 63 | 310 | 3.0 | 12.0 | 0.00 | 0.13 | 0.13 | 38 | 1009.2 |
| 20260507171104 | 63 | 290 | 2.0 | 6.0 | 0.00 | 0.13 | 0.13 | 42 | 1009.4 |
| 20260507170605 | 63 | 338 | 1.0 | 3.0 | 0.00 | 0.13 | 0.13 | 41 | 1009.4 |
| 20260507170104 | 63 | 302 | 2.0 | 7.0 | 0.00 | 0.13 | 0.13 | 44 | 1009.4 |
| 20260507165605 | 62 | 331 | 1.0 | 3.0 | 0.00 | 0.13 | 0.13 | 45 | 1009.4 |
| 20260507165104 | 62 | 64 | 0.0 | 2.0 | 0.00 | 0.13 | 0.13 | 47 | 1009.7 |
| 20260507164605 | 62 | 92 | 0.0 | 3.0 | 0.00 | 0.13 | 0.13 | 47 | 1009.6 |
| 20260507164105 | 62 | 345 | 1.0 | 2.0 | 0.00 | 0.13 | 0.13 | 49 | 1009.7 |
| 20260507163605 | 62 | 126 | 1.0 | 2.0 | 0.00 | 0.13 | 0.13 | 46 | 1009.8 |
| 20260507163104 | 61 | 77 | 1.0 | 3.0 | 0.00 | 0.14 | 0.13 | 48 | 1009.9 |
| 20260507162105 | 61 | 135 | 2.0 | 8.0 | 0.00 | 0.14 | 0.13 | 49 | 1010.0 |
| 20260507161605 | 61 | 27 | 1.0 | 3.0 | 0.00 | 0.14 | 0.13 | 50 | 1010.1 |
| 20260507161105 | 61 | 263 | 1.0 | 3.0 | 0.00 | 0.14 | 0.13 | 49 | 1010.2 |
| 20260507160605 | 61 | 312 | 1.0 | 3.0 | 0.00 | 0.14 | 0.13 | 47 | 1010.1 |
| 20260507155604 | 62 | 187 | 2.0 | 3.0 | 0.00 | 0.14 | 0.13 | 53 | 1010.0 |
| 20260507155105 | 61 | 234 | 1.0 | 3.0 | 0.00 | 0.14 | 0.13 | 52 | 1010.2 |
| 20260507154604 | 60 | 343 | 2.0 | 5.0 | 0.00 | 0.14 | 0.13 | 52 | 1010.2 |
| 20260507153605 | 60 | 184 | 1.0 | 3.0 | 0.00 | 0.14 | 0.13 | 55 | 1010.4 |
| 20260507153105 | 59 | 289 | 1.0 | 2.0 | 0.00 | 0.14 | 0.13 | 56 | 1010.6 |
| 20260507152605 | 59 | 3 | 1.0 | 3.0 | 0.00 | 0.14 | 0.13 | 56 | 1010.7 |
| 20260507152105 | 58 | 319 | 1.0 | 3.0 | 0.00 | 0.14 | 0.13 | 57 | 1010.8 |